View from above orbital plane
|
View from above satellite
|
Ground track
|
The orbit data is extracted from the following two-line orbital elements,
1 43137U 18004AC 21016.69353680 .00001159 00000-0 49718-4 0 9990
2 43137 97.4245 92.2060 0009735 35.0589 325.1288 15.24719108167533
Epoch (UTC): | 16 January 2021 16:38:41 |
Eccentricity: | 0.0009735 |
inclination: | 97.4245° |
perigee height: | 485 km |
apogee height: | 498 km |
right ascension of ascending node: | 92.2060° |
argument of perigee: | 35.0589° |
revolutions per day: | 15.24719108 |
mean anomaly at epoch: | 325.1288° |
orbit number at epoch: | 16753 |
The dashed part of the orbit path shows where the satellite is in the earth's shadow,
|
|